This is the latest recevied weather packets stored in our database for station/object N4NVD-13. If no packets are shown the sender has not sent any weather packets the latest 10 day(s).
| Time | Temp. | Humidity | Pressure | Rain* | Wind** | Luminosity | Snow |
|---|---|---|---|---|---|---|---|
| 1777580483 | 18.89° C | 99% | 1009.1 hPa | 0 mm | - | 76 W/m² | - |
| 1777580177 | 18.89° C | 99% | 1011.2 hPa | 0 mm | - | 62 W/m² | - |
| 1777579874 | 19.44° C | 99% | 1012 hPa | 0 mm | - | 44 W/m² | - |
| 1777579568 | 18.89° C | 99% | 1012.7 hPa | 0 mm | - | 23 W/m² | - |
| 1777579263 | 19.44° C | 99% | 1012.3 hPa | 0 mm | - | 23 W/m² | - |
| 1777578958 | 19.44° C | 99% | 1012.4 hPa | 0 mm | - | 16 W/m² | - |
| 1777578653 | 19.44° C | 99% | 1011.7 hPa | 0 mm | - | 39 W/m² | - |
| 1777578353 | 19.44° C | 98% | 1012.1 hPa | 0 mm | - | 34 W/m² | - |
| 1777578049 | 19.44° C | 98% | 1012 hPa | 0 mm | - | 37 W/m² | - |
| 1777577744 | 19.44° C | 98% | 1011.9 hPa | 0 mm | - | 51 W/m² | - |
| 1777577441 | 19.44° C | 98% | 1011.8 hPa | 0 mm | - | 43 W/m² | - |
| 1777577138 | 20° C | 98% | 1011.5 hPa | 0 mm | - | 28 W/m² | - |
| 1777576834 | 20° C | 98% | 1011.1 hPa | 0 mm | - | 22 W/m² | - |
| 1777576533 | 20° C | 98% | 1011.2 hPa | 0 mm | - | 34 W/m² | - |
| 1777576230 | 20° C | 98% | 1011.3 hPa | 0 mm | - | 59 W/m² | - |
| 1777575926 | 20° C | 98% | 1011.3 hPa | 0 mm | - | 75 W/m² | - |
| 1777575622 | 20° C | 98% | 1011 hPa | 0 mm | - | 82 W/m² | - |
| 1777575318 | 20° C | 98% | 1010.9 hPa | 0 mm | - | 102 W/m² | - |
| 1777575015 | 20° C | 98% | 1010.9 hPa | 0 mm | - | 100 W/m² | - |
| 1777574711 | 20° C | 98% | 1010.8 hPa | 0 mm | - | 126 W/m² | - |
| 1777574408 | 20° C | 98% | 1010.7 hPa | 0 mm | - | 158 W/m² | - |
| 1777574104 | 20° C | 98% | 1010.8 hPa | 0 mm | - | 168 W/m² | - |
| 1777573798 | 20° C | 98% | 1010.9 hPa | 0 mm | - | 174 W/m² | - |
| 1777573494 | 20° C | 98% | 1010.9 hPa | 0 mm | - | 95 W/m² | - |
| 1777573190 | 20° C | 99% | 1011.3 hPa | 0 mm | - | 155 W/m² | - |
* Rain latest hour (hover to see other rain measurements)
** Current wind speed in m/s (hover to see current wind gust speed)